Find Starlink 5269

NORAD ID: 54161 Int'l Des: 2022-141 Owner: SPXS Country: US Constellation: starlink operational
LEOCIRCULAR

Live Position

Loading 3D Globe...

About Starlink 5269

Description loading...

Upcoming Passes

Passes for default location (London). Set your location on the main map for personalized predictions.

Altitude History

Loading altitude history...

Two-Line Element Set

1 54161U 22141E 26109.47952059 -.00001301 00000-0 -63676-4 0 9995
2 54161 53.2160 191.1125 0001141 88.4692 271.6431 15.08831166191879
Epoch: Apr 19, 2026 • Age: 16 hours

Current Status

Altitude 541.8 km
Velocity 7.60 km/s
Sub-Earth Point 35.08°N, 42.78°W
Launch Date Oct 28, 2022
Age 3.4 years
Type internet

Technical Details

Classification Payload
Mass 305.00 kg
Dry Mass 290.00 kg
Total Mass 305.00 kg
Length 0.20 m
Diameter 2.80 m
Span 9.00 m
Shape Box + pan
Manufacturer SPXS
Bus Type Starlink
Phase Status In Orbit
Owner/State SPXS/US

Most Searched